Regional Weather Roundup
Issued by NWS Bismarck, ND

Home | Current Version | Previous Version | Text Only | Print | Product List | Glossary On
Versions: 1 2 3 4 5 6 7 8 9 10 11 12 13 14 15 16 17 18 19 20 21 22 23 24 25 26 27 28 29 30 31 32 33 34 35 36 37 38 39 40 41 42 43 44 45 46 47 48 49 50
000
ASUS43 KBIS 210510
RWRBIS

NWR BROADCAST TEXT
NATIONAL WEATHER SERVICE BISMARCK ND
1100 PM CST MON FEB 20 2017

NOTE: "FAIR" INDICATES FEW OR NO CLOUDS BELOW 12,000 FEET WITH NO
SIGNIFICANT WEATHER AND/OR OBSTRUCTIONS TO VISIBILITY.


CITY           SKY/WX    TMP DP  RH WIND       PRES   REMARKS
WILLISTON      CLOUDY    37  30  75 NW7       29.66R
MINOT          MOCLDY    38  31  76 SW8       29.69S
MINOT AFB      FAIR      33  29  87 CALM      29.68S
BISMARCK       FAIR      35  32  88 E6        29.73F
DICKINSON      CLOUDY    40  27  59 SE13      29.67R
GARRISON         N/A     35  31  85 E5        29.69F
HETTINGER ARPT CLOUDY    45  26  47 SE12      29.71F
JAMESTOWN      FAIR      31  29  92 S6        29.75F
CARRINGTON     FAIR      34  32  93 SW7       29.75F
HAZEN          CLOUDY   N/A N/A N/A CALM      29.72R
MANDAN         CLOUDY    37  28  70 SE6       29.73S
RUGBY            N/A     32  32 100 SW7       29.70S
STANLEY        CLOUDY    34  34 100 CALM      29.70S
TIOGA          MOCLDY    32  32 100 SE3       29.68S
WATFORD CITY   FAIR      37  28  70 SE5       29.66S
$$

CITY           SKY/WX    TMP DP  RH WIND       PRES   REMARKS
GRAND FORKS    FAIR      31  26  82 S7        29.73R
GRAND FORKS AF FAIR      32  31  99 CALM      29.72F
DEVILS LAKE    FAIR      30  29  96 CALM      29.71F FOG
FARGO          FAIR      32  31  96 S8        29.77R FOG
CAVALIER         N/A     28  28 100 CALM      29.71S
GRAFTON        FAIR      30  30 100 CALM      29.74R FOG
GWINNER        FAIR      34  34 100 S8        29.80F
ROLLA          FAIR      32  32 100 S6        29.69S
$$

CITY           SKY/WX    TMP DP  RH WIND       PRES   REMARKS
ABERDEEN       FAIR      33  30  88 S6        29.81F
MOBRIDGE       FAIR      37  31  78 SE5       29.74F
BUFFALO          N/A     45  28  51 S12       29.63R
RAPID CITY     FAIR      54  30  40 S10       29.77F
GLASGOW        FAIR      40  37  89 SW7       29.60R
SIDNEY         MOCLDY    37  30  75 S6        29.65S
WOLF POINT     FAIR      36  33  89 N3        29.60F
GLENDIVE       MOCLDY    39  29  67 W7        29.66S
MILES CITY     FAIR      43  28  55 S8        29.65S
BAKER          MOCLDY    38  28  67 E6        29.67S
$$

CITY           SKY/WX    TMP DP  RH WIND       PRES   REMARKS
BILLINGS       MOCLDY    48  32  53 W12       29.68S
GREAT FALLS    FAIR      41  31  67 W17       29.62S
REGINA         CLOUDY    30  30 100 SE5       29.65R
ESTEVAN        CLOUDY    32  30  93 SE2       29.65S
$$





USA.gov is the U.S. government's official web portal to all federal, state and local government web resources and services.